| Date | Time | Temp. (oF) | Dew Point (oF) | Rel. Hum. (%) | Press. (in.) | Wind Dir. | Wind Speed (mph) | Hourly Rainfall (in.) |
|
|---|---|---|---|---|---|---|---|---|---|
| 1 | 04/26 | 00:00 | 50 | 50 | 100 | 29.41 | NNE | 3 | 0.00 |
| 2 | 04/25 | 23:00 | 50 | 50 | 100 | 29.42 | SSE | 1 | 0.09 |
| 3 | 04/25 | 22:00 | 50 | 50 | 100 | 29.45 | NNE | 6 | 0.00 |
| 4 | 04/25 | 21:00 | 50 | 50 | 100 | 29.44 | NNE | 14 | 0.00 |
| 5 | 04/25 | 20:00 | 50 | 49 | 99 | 29.38 | ENE | 3 | 0.00 |
| 6 | 04/25 | 19:00 | 51 | 50 | 98 | 29.40 | SE | 6 | 0.00 |
| 7 | 04/25 | 18:00 | 51 | 50 | 97 | 29.42 | E | 4 | 0.00 |
| 8 | 04/25 | 17:00 | 52 | 51 | 97 | 29.42 | ENE | 16 | 0.00 |
| 9 | 04/25 | 16:00 | 53 | 51 | 95 | 29.46 | ENE | 5 | 0.00 |
| 10 | 04/25 | 15:00 | 53 | 51 | 96 | 29.50 | ESE | 6 | 0.00 |
| 11 | 04/25 | 14:00 | 53 | 52 | 97 | 29.52 | ESE | 4 | 0.00 |
| 12 | 04/25 | 13:00 | 52 | 51 | 98 | 29.55 | E | 4 | 0.00 |
| 13 | 04/25 | 12:00 | 50 | 50 | 100 | 29.57 | SE | 4 | 0.00 |
| 14 | 04/25 | 11:00 | 49 | 49 | 100 | 29.59 | E | 3 | 0.00 |
| 15 | 04/25 | 10:00 | 48 | 48 | 100 | 29.60 | NE | 5 | 0.00 |
| 16 | 04/25 | 09:00 | 47 | 46 | 100 | 29.63 | ENE | 4 | 0.00 |
| 17 | 04/25 | 08:00 | 46 | 45 | 100 | 29.65 | E | 3 | 0.01 |
| 18 | 04/25 | 07:00 | 47 | 46 | 99 | 29.65 | E | 5 | 0.01 |
| 19 | 04/25 | 06:00 | 47 | 46 | 98 | 29.67 | ESE | 4 | 0.01 |
| 20 | 04/25 | 05:00 | 47 | 46 | 97 | 29.69 | ESE | 6 | 0.01 |
| 21 | 04/25 | 04:00 | 47 | 45 | 96 | 29.71 | SSE | 4 | 0.05 |
| 22 | 04/25 | 03:00 | 48 | 46 | 95 | 29.75 | ESE | 4 | 0.06 |
| 23 | 04/25 | 02:00 | 49 | 47 | 93 | 29.79 | ENE | 3 | 0.05 |
| 24 | 04/25 | 01:00 | 50 | 46 | 88 | 29.83 | E | 2 | 0.06 |